Regional Weather Roundup
Issued by NWS

Home | Current Version | Previous Version | Graphics & Text | Print | Product List | Glossary On
Versions: 1 2 3 4 5 6 7 8 9 10 11 12 13 14 15 16 17 18 19 20 21 22 23 24 25 26 27 28 29 30 31 32 33 34 35 36 37 38 39 40 41 42 43 44 45 46 47 48 49 50
061
ASUS43 KMPX 241410
RWRMN
WEATHER ROUNDUP FOR MINNESOTA
NATIONAL WEATHER SERVICE TWIN CITIES/CHANHASSEN MN
800 AM CST FRI NOV 24 2017


NOTE: "FAIR" INDICATES FEW OR NO CLOUDS BELOW 12,000 FEET WITH NO
SIGNIFICANT WEATHER AND/OR OBSTRUCTIONS TO VISIBILITY. N/A MEANS
CURRENT SKY AND/OR WEATHER CONDITIONS ARE NOT AVAILABLE.

MNZ060>063-068>070-241500-
   Twin Cities Metro

CITY           SKY/WX    TMP DP  RH WIND       PRES   REMARKS
TWIN CITIES    CLOUDY    49  40  71 SW10      29.35F
ST PAUL        CLEAR     44  38  79 SE8       29.36F
CRYSTAL        PTCLDY    47  36  65 SW9       29.34S
BLAINE         PTCLDY    48  39  71 SW12G17   29.34S
LAKEVILLE      CLEAR     46  37  71 S6        29.37S
EDEN PRAIRIE   PTCLDY    47  38  71 SW14      29.35F
SOUTH ST PAUL  CLEAR     46  37  71 S7        29.35F
LAKE ELMO      FAIR      45  37  76 S16       29.35F
$$
MNZ001>005-007-008-013>017-022>024-027-028-241500-
   Northwest Minnesota

CITY           SKY/WX    TMP DP  RH WIND       PRES   REMARKS
BEMIDJI        LGT RAIN  41  38  92 W13       29.26R
HALLOCK        CLOUDY    36  34  93 CALM      29.28R
ROSEAU         CLOUDY    37  34  87 W5        29.25S
WARROAD        CLOUDY    39  36  87 W7        29.25R
THIEF RVR FALL LGT RAIN  38  36  92 W7        29.30R
CROOKSTON      MIX PCPN  37  36  93 NW6       29.31S
FOSSTON        LGT RAIN  37  37 100 W8        29.32R
DETROIT LAKES  PTCLDY    45  37  76 W10       29.34R
MOORHEAD       DRIZZLE   39  34  81 CALM      29.35R
PARK RAPIDS    CLOUDY    40  36  86 NW9       29.26F
MAHNOMEN       DRIZZLE   40  37  91 W10       29.33R
$$
MNZ006-009>011-018-025>026-241500-
   North Central Minnesota

CITY           SKY/WX    TMP DP  RH WIND       PRES   REMARKS
BAUDETTE       CLOUDY    38  34  85 NW5       29.23R
FLAG ISLAND    CLOUDY    36  34  93 NW14      29.23R
INTL FALLS     CLOUDY    42  35  76 W6        29.20F
WASKISH        CLOUDY    37  36  93 W7        29.26R
BIG FORK       LGT RAIN  43  39  87 CALM      29.25R
LONGVILLE      CLOUDY    43  37  81 CALM      29.27F
GRAND RAPIDS   CLOUDY    45  37  73 W7        29.28R
CRANE LAKE     CLOUDY    39  37  93 CALM      29.24R
ORR            CLOUDY    39  36  87 W3        29.22R
COOK           DRIZZLE   39  36  87 SW6       29.24S
WALKER         CLOUDY    46  37  70 W8        29.27R
$$
MNZ012-019>021-037-241500-
   Northeast Minnesota

CITY           SKY/WX    TMP DP  RH WIND       PRES   REMARKS
DULUTH         CLOUDY    39  34  82 W13       29.24F
ELY            CLOUDY    37  34  87 SW5       29.22R
HIBBING        CLOUDY    36  34  92 CALM      29.25R
EVELETH        CLOUDY    37  32  80 W6        29.26S
DULUTH HARBOR  CLOUDY    43  37  81 SW12      29.27F
TWO HARBORS    CLOUDY    41  36  81 SW5       29.22F
SILVER BAY     CLOUDY    37  34  87 SW5       29.21F
GRAND MARAIS     N/A     38  35  89 W3        29.21S
G MARAIS ARPRT CLOUDY    37  30  75 W5        29.18F
$$
MNZ029>031-032-039>041-046>048-054>057-064-241500-
   West Central Minnesota

CITY           SKY/WX    TMP DP  RH WIND       PRES   REMARKS
FERGUS FALLS   MOCLDY    41  36  81 CALM      29.35S
MORRIS         CLOUDY    43  36  75 W9        29.33R
ALEXANDRIA     PTCLDY    43  36  76 W8        29.34R
ELBOW LAKE     FAIR      40  35  85 NW5       29.33S
WADENA         PTCLDY    45  37  76 W12       29.30S
GLENWOOD       CLEAR     43  37  81 W12       29.33S
APPLETON       PTCLDY    43  36  75 W7        29.35R
BENSON         PTCLDY    32  30  93 CALM      29.34F
ORTONVILLE     CLOUDY    48  36  61 W12       29.37R
MADISON        PTCLDY    52  39  62 W8        29.34F
WILLMAR        FAIR      39  36  87 S3        29.35S
$$
MNZ033>034-036-042>043-049>051-058-059-241500-
   Central Minnesota

CITY           SKY/WX    TMP DP  RH WIND       PRES   REMARKS
ST CLOUD       CLEAR     39  36  89 S8        29.30F
SAUK CENTRE    FAIR      40  35  84 SW5       29.32S
PAYNESVILLE    CLEAR     41  37  86 SW5       29.33S
AITKIN         CLOUDY    39  34  81 SW6       29.26R
PINE RIVER     CLOUDY    36  32  87 S3        29.32R
BRAINERD       CLOUDY    38  35  89 W7        29.30R
STAPLES          N/A     37  34  87 W5        29.29R
LONG PRAIRIE   FAIR      39  34  81 SW7       29.31R
LITTLE FALLS   CLEAR     36  30  80 S3        29.30S
LITCHFIELD     CLOUDY    41  37  87 SW5       29.34F
BUFFALO        PTCLDY    42  36  79 S9        29.34F
MAPLE LAKE     PTCLDY    41  37  87 SW5       29.34F
HUTCHINSON     CLOUDY    39  37  91 S3        29.37S
$$
MNZ037-044-045-052-053-241500-
   East Central Minnesota

CITY           SKY/WX    TMP DP  RH WIND       PRES   REMARKS
PRINCETON      CLEAR     39  36  87 S3        29.32F
MORA           CLOUDY    34  32  93 SW5       29.33F WCI  30
CAMBRIDGE      CLOUDY    45  34  65 S6        29.33R
RUSH CITY      CLOUDY    44  37  75 S6        29.32R
MOOSE LAKE     CLOUDY    37  34  87 S5        29.25F
HINCKLEY       FAIR      36  34  93 S3        29.31F
CLOQUET        MOCLDY    39  34  81 S7        29.25F
MCGREGOR       CLOUDY    41  36  81 CALM      29.27R
$$
MNZ071>073-080-081-089-090-097-098-241500-
   Southwest Minnesota

CITY           SKY/WX    TMP DP  RH WIND       PRES   REMARKS
MONTEVIDEO     CLEAR     43  37  81 S3        29.33F
GRANITE FALLS  CLOUDY    42  37  82 SW6       29.37R
CANBY          PTCLDY    52  38  59 SW10      29.37R
MARSHALL       CLOUDY    49  39  68 W15       29.36R
REDWOOD FALLS  CLEAR     46  37  71 SW7       29.36S
OLIVIA         CLEAR     39  36  87 SW7       29.36R
PIPESTONE      CLEAR     36  34  93 S3        29.41S
WINDOM         CLEAR     45  30  57 S13       29.40S
WORTHINGTON    CLEAR     44  38  79 SW17      29.41F
JACKSON        CLEAR     43  36  75 S12       29.40F
SLAYTON        CLEAR     44  38  80 SW13      29.40S
$$
MNZ065>067-074>077-082>085-091>093-241500-
   South Central Minnesota

CITY           SKY/WX    TMP DP  RH WIND       PRES   REMARKS
MANKATO        CLEAR     41  36  82 S10       29.39F
NEW ULM        CLEAR     39  36  87 CALM      29.37R
ST JAMES       CLEAR     45  37  76 S8        29.39F
FAIRMONT       CLEAR     41  36  82 S15       29.40F
GLENCOE        PTCLDY    43  38  83 S7        29.36R
FARIBAULT      CLEAR     45  37  76 S7        29.41S
OWATONNA       CLEAR     45  37  76 S14G21    29.41F
WASECA         CLEAR     41  34  75 S10       29.42F
ALBERT LEA     CLEAR     46  36  66 S8        29.44F
$$
MNZ078>079-086>088-094>096-241500-
   Southeast Minnesota

CITY           SKY/WX    TMP DP  RH WIND       PRES   REMARKS
ROCHESTER      CLEAR     43  36  76 S18       29.44F
RED WING       CLEAR     46  34  61 S6        29.40F
STANTON        CLEAR     46  37  71 S8        29.38S
DODGE CENTER   CLEAR     43  36  75 S20       29.42F
WINONA         CLEAR     48  37  66 S5        29.46F
AUSTIN         CLEAR     37  34  87 S7        29.45F
PRESTON        CLEAR     43  34  70 S12       29.47F
$$
ABBREVIATIONS USED IN REMARKS
   TC - TEMPERATURES IN CELSIUS
  WCI - WIND CHILL INDEX
   HX - HEAT INDEX
  VSB - VISIBILITY
$$




USA.gov is the U.S. government's official web portal to all federal, state and local government web resources and services.